Location: Sobotiste
(48.7170°N, 17.4000°E)
Time: 23:59:42
(UTC+01:00)

FO-29 - Visible Passes

Search period start: 12 March 2026 00:00
Search period end: 22 March 2026 00:00
Orbit: 800 x 1320 km, 98.5° (Epoch: 12 March)

Date Brightness Start Highest point End Pass type
(mag) Time Alt. Az. Time Alt. Az. Time Alt. Az.
12 Mar 12.3 05:06:04 10° ENE 05:08:12 12° NE 05:10:23 10° NNE visible
12 Mar 10.4 19:34:32 10° NNE 19:41:25 41° E 19:48:40 10° SSE visible
12 Mar 10.6 21:19:32 10° N 21:26:32 53° WNW 21:34:00 10° SW visible
12 Mar 12.4 23:06:33 10° NNW 23:10:09 15° NW 23:13:52 10° WNW visible
13 Mar 11.2 18:40:34 10° NE 18:45:34 19° E 18:50:42 10° SE visible
13 Mar 9.9 20:24:07 10° NNE 20:31:31 79° ESE 20:39:22 10° SSW visible
13 Mar 11.6 22:09:56 10° N 22:15:55 29° WNW 22:22:14 10° WSW visible
14 Mar 12.4 05:00:56 10° ENE 05:02:55 12° NE 05:04:56 10° NNE visible
14 Mar 10.4 19:29:12 10° NNE 19:36:05 39° E 19:43:17 10° SSE visible
14 Mar 10.6 21:14:07 10° N 21:21:16 56° WNW 21:28:52 10° SW visible
14 Mar 12.3 23:00:57 10° NNW 23:04:56 16° NW 23:09:03 10° W visible
15 Mar 11.2 18:35:22 10° NE 18:40:11 18° E 18:45:07 10° SE visible
15 Mar 9.9 20:18:45 10° NNE 20:26:14 76° ESE 20:34:07 10° S visible
15 Mar 11.6 22:04:29 10° N 22:10:41 31° WNW 22:17:11 10° WSW visible
16 Mar 12.5 04:55:49 10° ENE 04:57:37 11° NE 04:59:29 10° NNE visible
16 Mar 10.5 19:23:53 10° NNE 19:30:46 37° E 19:37:53 10° SSE visible
16 Mar 10.5 21:08:44 10° N 21:16:01 60° WNW 21:23:41 10° SW visible
16 Mar 12.3 22:55:23 10° NNW 22:59:42 17° NW 23:04:11 10° W visible
17 Mar 11.3 18:30:13 10° NE 18:34:49 17° E 18:39:29 10° ESE visible
17 Mar 10.0 20:13:24 10° NNE 20:20:57 72° ESE 20:28:49 10° S visible
17 Mar 11.5 21:59:03 10° N 22:05:27 32° WNW 22:12:08 10° WSW visible
18 Mar 12.5 04:50:44 10° NE 04:52:21 11° NE 04:54:02 10° NNE visible
18 Mar 10.6 19:18:36 10° NNE 19:25:27 35° E 19:32:28 10° SSE visible
18 Mar 10.4 21:03:21 10° N 21:10:46 63° WNW 21:18:30 10° SSW visible
18 Mar 12.3 22:49:52 10° N 22:54:29 18° NW 22:59:16 10° W visible
19 Mar 11.4 18:25:05 10° NE 18:29:26 16° E 18:33:48 10° ESE visible
19 Mar 10.0 20:08:03 10° NNE 20:15:40 68° ESE 20:23:31 10° S visible
19 Mar 11.4 21:53:38 10° N 22:00:13 34° WNW 22:07:02 10° WSW visible
20 Mar 12.6 04:45:41 10° NE 04:47:06 11° NE 04:48:33 10° NNE visible
20 Mar 10.7 19:13:19 10° NNE 19:20:08 33° E 19:27:02 10° SSE visible
20 Mar 10.4 20:57:59 10° N 21:05:31 66° WNW 21:13:17 10° SSW visible
20 Mar 12.2 22:44:22 10° N 22:49:17 19° NW 22:54:20 10° W visible
21 Mar 10.0 20:02:44 10° NNE 20:10:24 65° E 20:18:11 10° S visible
21 Mar 11.4 21:48:14 10° N 21:55:00 36° WNW 22:01:56 10° WSW visible
21 Mar 12.7 23:37:07 10° NNW 23:37:58 10° NW 23:38:49 10° NW visible
